QPF
0.00 0.00 0.02 0.01 0.00 0.00 0.01 0.01 0.01 0.01 0.02 0.01 0.01 0.01 0.01 0.00 0.00 0.00 0.00 0.01 0.01 0.01 0.01 0.01 0.01 0.01 0.01 0.01 0.00 0.00 0.01 0.01 0.01 0.01 0.01 0.01 0.02 0.02 0.01 0.01 0.00 0.00 0.00
0.00 0.00 0.01 0.01 0.00 0.00 0.01 0.01 0.01 0.01 0.01 0.01 0.01 0.01 0.01 0.00 0.00 0.00 0.00 0.00 0.00 0.01 0.01 0.01 0.01 0.01 0.00 0.00 0.00 0.00 0.00 0.00 0.00 0.00 0.00 0.00 0.01 0.02 0.01 0.01 0.01 0.01 0.01
0.00 0.00 0.01 0.01 0.01 0.01 0.01 0.01 0.01 0.01 0.01 0.01 0.01 0.01 0.01 0.00 0.00 0.00 0.00 0.00 0.00 0.00 0.00 0.01 0.00 0.00 0.00 0.00 0.00 0.00 0.00 0.00 0.00 0.00 0.00 0.00 0.00 0.01 0.01 0.01 0.01 0.01 0.01
0.00 0.00 0.00 0.01 0.01 0.01 0.01 0.01 0.01 0.01 0.01 0.01 0.01 0.01 0.01 0.01 0.00 0.00 0.00 0.00 0.00 0.00 0.00 0.00 0.00 0.00 0.00 0.00 0.00 0.00 0.00 0.00 0.00 0.00 0.00 0.00 0.00 0.01 0.01 0.00 0.01 0.01 0.01
0.00 0.00 0.00 0.01 0.00 0.01 0.01 0.01 0.01 0.01 0.00 0.00 0.00 0.00 0.01 0.01 0.00 0.00 0.00 0.00 0.00 0.00 0.00 0.00 0.00 0.00 0.00 0.00 0.00 0.00 0.00 0.00 0.00 0.00 0.00 0.00 0.00 0.00 0.00 0.00 0.00 0.00 0.00
0.00 0.00 0.00 0.01 0.01 0.01 0.01 0.01 0.01 0.01 0.01 0.01 0.00 0.00 0.01 0.01 0.00 0.00 0.00 0.00 0.00 0.00 0.00 0.00 0.00 0.00 0.00 0.00 0.00 0.00 0.00 0.00 0.00 0.00 0.00 0.00 0.00 0.00 0.00 0.00 0.00 0.00 0.00
0.00 0.00 0.00 0.01 0.01 0.01 0.01 0.01 0.01 0.01 0.01 0.00 0.00 0.01 0.01 0.00 0.00 0.00 0.00 0.00 0.00 0.00 0.00 0.00 0.00 0.00 0.00 0.00 0.00 0.00 0.00 0.00 0.00 0.00 0.00 0.00 0.00 0.00 0.00 0.00 0.00 0.00 0.00
0.00 0.00 0.00 0.01 0.01 0.01 0.01 0.01 0.01 0.01 0.01 0.00 0.01 0.01 0.01 0.00 0.00 0.00 0.00 0.00 0.00 0.00 0.00 0.00 0.00 0.00 0.00 0.00 0.00 0.00 0.00 0.00 0.00 0.00 0.00 0.00 0.00 0.00 0.00 0.00 0.00 0.00 0.00
0.00 0.00 0.00 0.01 0.01 0.02 0.01 0.01 0.02 0.02 0.01 0.01 0.01 0.01 0.01 0.00 0.00 0.00 0.00 0.00 0.00 0.00 0.00 0.00 0.00 0.00 0.00 0.00 0.00 0.00 0.00 0.00 0.00 0.00 0.00 0.00 0.00 0.00 0.00 0.00 0.00 0.00 0.00
0.00 0.00 0.01 0.01 0.01 0.01 0.01 0.01 0.01 0.01 0.01 0.01 0.01 0.01 0.01 0.00 0.00 0.00 0.00 0.00 0.00 0.00 0.00 0.00 0.00 0.00 0.00 0.00 0.00 0.00 0.00 0.00 0.00 0.00 0.00 0.00 0.00 0.00 0.00 0.00 0.00 0.00 0.00
0.00 0.00 0.01 0.01 0.02 0.01 0.01 0.01 0.02 0.01 0.01 0.01 0.01 0.01 0.01 0.00 0.00 0.00 0.00 0.00 0.00 0.00 0.00 0.00 0.00 0.00 0.00 0.00 0.00 0.00 0.00 0.00 0.00 0.00 0.00 0.00 0.00 0.00 0.00 0.00 0.00 0.00 0.00
0.00 0.00 0.01 0.01 0.01 0.01 0.01 0.01 0.01 0.01 0.01 0.01 0.01 0.01 0.00 0.00 0.00 0.00 0.00 0.00 0.00 0.00 0.00 0.00 0.00 0.00 0.00 0.00 0.00 0.00 0.00 0.00 0.00 0.00 0.00 0.00 0.00 0.00 0.00 0.00 0.00 0.00 0.00
0.00 0.00 0.01 0.01 0.01 0.01 0.01 0.01 0.01 0.01 0.01 0.01 0.01 0.01 0.00 0.00 0.00 0.00 0.00 0.00 0.00 0.00 0.00 0.00 0.00 0.00 0.00 0.00 0.00 0.00 0.00 0.00 0.00 0.00 0.00 0.00 0.00 0.00 0.00 0.00 0.00 0.00 0.00
0.00 0.00 0.01 0.01 0.01 0.01 0.01 0.01 0.01 0.01 0.01 0.01 0.01 0.00 0.00 0.00 0.00 0.00 0.00 0.00 0.00 0.00 0.00 0.00 0.00 0.00 0.00 0.00 0.00 0.00 0.00 0.00 0.00 0.00 0.00 0.00 0.00 0.00 0.00 0.00 0.00 0.00 0.00
0.00 0.00 0.01 0.01 0.01 0.01 0.01 0.01 0.01 0.01 0.01 0.01 0.00 0.00 0.00 0.00 0.00 0.00 0.00 0.00 0.00 0.00 0.00 0.00 0.00 0.00 0.00 0.00 0.00 0.00 0.00 0.00 0.00 0.00 0.00 0.00 0.00 0.00 0.00 0.00 0.00 0.00 0.01
0.00 0.00 0.00 0.00 0.01 0.01 0.01 0.01 0.01 0.01 0.00 0.00 0.00 0.00 0.00 0.00 0.00 0.00 0.00 0.00 0.00 0.00 0.00 0.00 0.00 0.00 0.00 0.00 0.00 0.00 0.00 0.00 0.00 0.00 0.00 0.00 0.00 0.00 0.00 0.00 0.00 0.00 0.00
0.00 0.00 0.00 0.00 0.00 0.01 0.01 0.01 0.01 0.01 0.01 0.01 0.00 0.00 0.00 0.00 0.00 0.00 0.00 0.00 0.00 0.00 0.00 0.00 0.00 0.00 0.00 0.00 0.00 0.00 0.00 0.00 0.00 0.00 0.00 0.00 0.00 0.00 0.00 0.00 0.00 0.00 0.00
0.00 0.00 0.00 0.00 0.00 0.00 0.01 0.01 0.00 0.00 0.00 0.00 0.00 0.00 0.00 0.00 0.00 0.00 0.00 0.00 0.00 0.00 0.00 0.00 0.00 0.00 0.00 0.00 0.00 0.00 0.00 0.00 0.00 0.00 0.00 0.00 0.00 0.00 0.00 0.00 0.00 0.00 0.00
0.00 0.00 0.00 0.00 0.00 0.00 0.00 0.00 0.00 0.00 0.00 0.00 0.00 0.00 0.00 0.00 0.00 0.00 0.00 0.00 0.00 0.00 0.00 0.00 0.00 0.00 0.00 0.00 0.00 0.00 0.00 0.00 0.00 0.00 0.00 0.00 0.00 0.00 0.00 0.00 0.00 0.00 0.00
0.00 0.00 0.00 0.00 0.00 0.00 0.00 0.00 0.00 0.00 0.00 0.00 0.00 0.00 0.00 0.00 0.00 0.00 0.00 0.00 0.00 0.00 0.00 0.00 0.00 0.00 0.00 0.00 0.00 0.00 0.00 0.00 0.00 0.00 0.00 0.00 0.00 0.00 0.00 0.00 0.00 0.00 0.00
0.00 0.00 0.00 0.00 0.00 0.00 0.00 0.00 0.00 0.00 0.00 0.00 0.00 0.00 0.00 0.00 0.00 0.00 0.00 0.00 0.00 0.00 0.00 0.00 0.00 0.00 0.00 0.00 0.00 0.00 0.00 0.00 0.00 0.00 0.00 0.00 0.00 0.00 0.00 0.00 0.00 0.00 0.00
0.00 0.00 0.00 0.00 0.00 0.00 0.00 0.00 0.00 0.00 0.00 0.00 0.00 0.00 0.00 0.00 0.00 0.00 0.00 0.00 0.00 0.00 0.00 0.00 0.00 0.00 0.00 0.00 0.00 0.00 0.00 0.00 0.00 0.00 0.00 0.00 0.00 0.00 0.00 0.00 0.00 0.00 0.00
0.00 0.00 0.00 0.00 0.00 0.00 0.00 0.00 0.00 0.00 0.00 0.00 0.00 0.00 0.00 0.00 0.00 0.00 0.00 0.00 0.00 0.00 0.00 0.00 0.00 0.00 0.00 0.00 0.00 0.00 0.00 0.00 0.00 0.00 0.00 0.00 0.00 0.00 0.00 0.00 0.00 0.00 0.00
0.00 0.00 0.00 0.00 0.00 0.00 0.00 0.00 0.00 0.00 0.00 0.00 0.00 0.00 0.00 0.00 0.00 0.00 0.00 0.00 0.00 0.00 0.00 0.00 0.00 0.00 0.00 0.00 0.00 0.00 0.00 0.00 0.00 0.00 0.00 0.00 0.00 0.00 0.00 0.00 0.00 0.00 0.00
0.00 0.00 0.00 0.00 0.00 0.00 0.00 0.00 0.00 0.00 0.00 0.00 0.00 0.00 0.00 0.00 0.00 0.00 0.00 0.00 0.00 0.00 0.00 0.00 0.00 0.00 0.00 0.00 0.00 0.00 0.00 0.00 0.00 0.00 0.00 0.00 0.00 0.00 0.00 0.00 0.00 0.00 0.00
0.00 0.00 0.00 0.00 0.00 0.00 0.00 0.00 0.00 0.00 0.00 0.00 0.00 0.00 0.00 0.00 0.00 0.00 0.00 0.00 0.00 0.00 0.00 0.00 0.00 0.00 0.00 0.00 0.00 0.00 0.00 0.00 0.00 0.00 0.00 0.00 0.00 0.00 0.00 0.00 0.00 0.00 0.00
MSLP
1018.73 1018.61 1018.59 1018.69 1018.88 1019.13 1019.40 1019.65 1019.86 1020.03 1020.16 1020.27 1020.38 1020.51 1020.66 1020.82 1020.98 1021.11 1021.20 1021.24 1021.22 1021.17 1021.10 1021.02 1020.94 1020.88 1020.84 1020.79 1020.73 1020.66 1020.57 1020.46 1020.34 1020.23 1020.12 1020.03 1019.95 1019.89 1019.84 1019.79 1019.74 1019.68 1019.60
1018.62 1018.52 1018.54 1018.67 1018.90 1019.19 1019.50 1019.79 1020.03 1020.22 1020.37 1020.50 1020.64 1020.80 1020.98 1021.18 1021.38 1021.56 1021.70 1021.78 1021.80 1021.78 1021.73 1021.66 1021.59 1021.52 1021.45 1021.37 1021.29 1021.19 1021.08 1020.97 1020.86 1020.75 1020.66 1020.58 1020.52 1020.45 1020.40 1020.33 1020.26 1020.18 1020.10
1018.45 1018.40 1018.46 1018.63 1018.91 1019.26 1019.62 1019.96 1020.25 1020.48 1020.66 1020.81 1020.96 1021.13 1021.33 1021.54 1021.76 1021.96 1022.11 1022.21 1022.26 1022.27 1022.24 1022.18 1022.12 1022.05 1021.97 1021.88 1021.79 1021.69 1021.58 1021.48 1021.39 1021.31 1021.24 1021.18 1021.12 1021.05 1020.97 1020.87 1020.77 1020.67 1020.58
1018.29 1018.29 1018.39 1018.63 1018.97 1019.37 1019.79 1020.19 1020.52 1020.79 1021.00 1021.16 1021.32 1021.49 1021.68 1021.88 1022.08 1022.27 1022.42 1022.52 1022.58 1022.60 1022.59 1022.55 1022.51 1022.45 1022.38 1022.30 1022.22 1022.13 1022.05 1021.98 1021.92 1021.88 1021.83 1021.78 1021.72 1021.64 1021.53 1021.40 1021.26 1021.14 1021.03
1018.20 1018.25 1018.41 1018.70 1019.10 1019.56 1020.03 1020.46 1020.83 1021.12 1021.34 1021.51 1021.66 1021.82 1021.99 1022.17 1022.34 1022.50 1022.63 1022.73 1022.78 1022.80 1022.80 1022.79 1022.76 1022.73 1022.68 1022.63 1022.58 1022.53 1022.48 1022.45 1022.44 1022.42 1022.40 1022.36 1022.29 1022.17 1022.03 1021.86 1021.69 1021.53 1021.41
1018.22 1018.32 1018.53 1018.88 1019.32 1019.81 1020.30 1020.75 1021.12 1021.41 1021.62 1021.79 1021.94 1022.08 1022.23 1022.39 1022.54 1022.68 1022.78 1022.86 1022.90 1022.92 1022.93 1022.93 1022.92 1022.92 1022.90 1022.89 1022.87 1022.86 1022.87 1022.88 1022.90 1022.91 1022.90 1022.85 1022.76 1022.61 1022.42 1022.21 1022.00 1021.82 1021.69
1018.36 1018.51 1018.77 1019.14 1019.60 1020.09 1020.57 1021.00 1021.35 1021.61 1021.81 1021.97 1022.11 1022.25 1022.40 1022.55 1022.70 1022.82 1022.91 1022.96 1023.00 1023.01 1023.02 1023.03 1023.04 1023.05 1023.07 1023.09 1023.11 1023.14 1023.18 1023.23 1023.27 1023.30 1023.28 1023.22 1023.09 1022.90 1022.66 1022.41 1022.17 1021.97 1021.84
1018.61 1018.79 1019.08 1019.46 1019.91 1020.37 1020.80 1021.17 1021.47 1021.69 1021.86 1022.01 1022.16 1022.32 1022.49 1022.66 1022.82 1022.94 1023.03 1023.08 1023.10 1023.10 1023.10 1023.11 1023.13 1023.16 1023.20 1023.24 1023.29 1023.36 1023.42 1023.48 1023.53 1023.55 1023.52 1023.43 1023.25 1023.02 1022.74 1022.44 1022.17 1021.96 1021.84
1018.91 1019.10 1019.40 1019.77 1020.19 1020.60 1020.96 1021.25 1021.47 1021.64 1021.79 1021.94 1022.11 1022.31 1022.52 1022.73 1022.92 1023.07 1023.16 1023.21 1023.21 1023.20 1023.19 1023.19 1023.21 1023.24 1023.29 1023.35 1023.42 1023.49 1023.57 1023.63 1023.67 1023.67 1023.60 1023.47 1023.25 1022.97 1022.65 1022.32 1022.03 1021.82 1021.69
1019.16 1019.37 1019.67 1020.03 1020.40 1020.74 1021.02 1021.23 1021.38 1021.51 1021.63 1021.79 1021.99 1022.24 1022.51 1022.78 1023.01 1023.18 1023.28 1023.32 1023.32 1023.29 1023.26 1023.25 1023.26 1023.29 1023.35 1023.41 1023.49 1023.56 1023.62 1023.67 1023.68 1023.65 1023.55 1023.37 1023.12 1022.80 1022.45 1022.10 1021.80 1021.57 1021.43
1019.34 1019.56 1019.86 1020.20 1020.53 1020.80 1021.01 1021.15 1021.24 1021.33 1021.44 1021.62 1021.86 1022.16 1022.48 1022.80 1023.06 1023.25 1023.36 1023.40 1023.38 1023.34 1023.29 1023.27 1023.27 1023.30 1023.35 1023.42 1023.48 1023.54 1023.59 1023.61 1023.59 1023.51 1023.37 1023.16 1022.89 1022.55 1022.19 1021.83 1021.51 1021.27 1021.12
1019.40 1019.63 1019.94 1020.27 1020.57 1020.81 1020.96 1021.06 1021.11 1021.18 1021.30 1021.49 1021.76 1022.10 1022.46 1022.80 1023.08 1023.28 1023.38 1023.40 1023.37 1023.31 1023.25 1023.22 1023.22 1023.25 1023.30 1023.36 1023.42 1023.46 1023.47 1023.46 1023.40 1023.29 1023.12 1022.90 1022.61 1022.27 1021.91 1021.55 1021.23 1020.98 1020.81
1019.36 1019.62 1019.94 1020.27 1020.56 1020.78 1020.92 1020.99 1021.04 1021.11 1021.24 1021.45 1021.74 1022.09 1022.45 1022.79 1023.06 1023.24 1023.32 1023.33 1023.28 1023.21 1023.15 1023.12 1023.13 1023.16 1023.21 1023.27 1023.30 1023.32 1023.30 1023.24 1023.15 1023.01 1022.83 1022.59 1022.31 1021.99 1021.65 1021.31 1021.00 1020.74 1020.54
1019.30 1019.57 1019.91 1020.25 1020.55 1020.77 1020.92 1021.00 1021.07 1021.16 1021.30 1021.52 1021.82 1022.15 1022.49 1022.79 1023.03 1023.17 1023.22 1023.20 1023.14 1023.08 1023.03 1023.01 1023.02 1023.07 1023.12 1023.15 1023.16 1023.14 1023.08 1022.99 1022.86 1022.70 1022.51 1022.28 1022.03 1021.74 1021.44 1021.12 1020.83 1020.55 1020.32
1019.27 1019.56 1019.90 1020.25 1020.56 1020.80 1020.98 1021.10 1021.21 1021.33 1021.50 1021.72 1022.00 1022.29 1022.58 1022.82 1023.00 1023.09 1023.11 1023.07 1023.01 1022.96 1022.92 1022.93 1022.96 1023.00 1023.04 1023.06 1023.03 1022.96 1022.86 1022.72 1022.55 1022.37 1022.18 1021.97 1021.75 1021.51 1021.25 1020.98 1020.70 1020.42 1020.16
1019.36 1019.64 1019.97 1020.32 1020.63 1020.90 1021.12 1021.29 1021.45 1021.62 1021.81 1022.03 1022.28 1022.53 1022.75 1022.92 1023.02 1023.06 1023.05 1023.00 1022.95 1022.92 1022.91 1022.94 1022.98 1023.03 1023.04 1023.02 1022.94 1022.82 1022.65 1022.46 1022.26 1022.05 1021.86 1021.68 1021.49 1021.30 1021.09 1020.85 1020.60 1020.32 1020.04
1019.60 1019.84 1020.14 1020.46 1020.77 1021.06 1021.32 1021.55 1021.77 1021.99 1022.21 1022.44 1022.65 1022.84 1022.99 1023.09 1023.13 1023.13 1023.09 1023.05 1023.02 1023.01 1023.03 1023.08 1023.12 1023.15 1023.13 1023.05 1022.92 1022.73 1022.50 1022.25 1022.00 1021.78 1021.58 1021.40 1021.25 1021.09 1020.92 1020.73 1020.50 1020.23 1019.92
1019.99 1020.17 1020.41 1020.68 1020.97 1021.27 1021.57 1021.86 1022.14 1022.42 1022.67 1022.90 1023.09 1023.23 1023.32 1023.35 1023.34 1023.31 1023.26 1023.23 1023.22 1023.25 1023.29 1023.34 1023.38 1023.37 1023.31 1023.17 1022.97 1022.71 1022.41 1022.11 1021.82 1021.57 1021.36 1021.18 1021.04 1020.90 1020.76 1020.59 1020.37 1020.11 1019.80
1020.47 1020.57 1020.73 1020.94 1021.20 1021.50 1021.83 1022.18 1022.53 1022.86 1023.15 1023.39 1023.56 1023.67 1023.71 1023.70 1023.65 1023.60 1023.55 1023.54 1023.55 1023.60 1023.65 1023.70 1023.72 1023.67 1023.55 1023.36 1023.09 1022.77 1022.42 1022.07 1021.75 1021.47 1021.23 1021.04 1020.89 1020.75 1020.60 1020.43 1020.22 1019.96 1019.64
1020.96 1020.99 1021.07 1021.22 1021.44 1021.73 1022.09 1022.49 1022.91 1023.29 1023.63 1023.88 1024.05 1024.13 1024.13 1024.08 1024.02 1023.95 1023.91 1023.91 1023.94 1024.00 1024.06 1024.09 1024.07 1023.99 1023.82 1023.58 1023.27 1022.91 1022.53 1022.15 1021.80 1021.49 1021.23 1021.01 1020.82 1020.65 1020.47 1020.28 1020.05 1019.78 1019.46
1021.38 1021.36 1021.37 1021.46 1021.65 1021.95 1022.34 1022.78 1023.25 1023.69 1024.07 1024.34 1024.50 1024.56 1024.54 1024.48 1024.39 1024.32 1024.28 1024.28 1024.32 1024.38 1024.42 1024.43 1024.39 1024.27 1024.07 1023.80 1023.47 1023.11 1022.72 1022.35 1021.99 1021.66 1021.36 1021.09 1020.84 1020.61 1020.38 1020.13 1019.87 1019.57 1019.24
1021.66 1021.61 1021.59 1021.65 1021.83 1022.13 1022.55 1023.04 1023.55 1024.04 1024.44 1024.72 1024.89 1024.93 1024.90 1024.81 1024.71 1024.63 1024.59 1024.59 1024.62 1024.66 1024.68 1024.67 1024.60 1024.46 1024.25 1023.98 1023.67 1023.34 1022.98 1022.63 1022.28 1021.94 1021.60 1021.27 1020.95 1020.63 1020.32 1020.00 1019.67 1019.33 1018.98
1021.77 1021.73 1021.71 1021.77 1021.95 1022.27 1022.71 1023.24 1023.79 1024.30 1024.72 1025.01 1025.16 1025.20 1025.14 1025.04 1024.92 1024.83 1024.78 1024.76 1024.78 1024.80 1024.80 1024.76 1024.67 1024.53 1024.33 1024.10 1023.83 1023.55 1023.25 1022.94 1022.62 1022.27 1021.90 1021.51 1021.10 1020.69 1020.27 1019.86 1019.46 1019.07 1018.69
1021.70 1021.72 1021.73 1021.82 1022.02 1022.36 1022.82 1023.37 1023.93 1024.45 1024.87 1025.16 1025.30 1025.32 1025.24 1025.12 1024.99 1024.89 1024.82 1024.79 1024.78 1024.78 1024.75 1024.70 1024.60 1024.46 1024.30 1024.11 1023.91 1023.70 1023.48 1023.22 1022.92 1022.58 1022.17 1021.72 1021.23 1020.71 1020.19 1019.69 1019.22 1018.77 1018.35
1021.50 1021.59 1021.67 1021.80 1022.03 1022.39 1022.87 1023.42 1023.98 1024.48 1024.89 1025.15 1025.28 1025.28 1025.19 1025.06 1024.92 1024.81 1024.73 1024.68 1024.65 1024.63 1024.58 1024.50 1024.40 1024.28 1024.15 1024.01 1023.88 1023.74 1023.58 1023.37 1023.11 1022.76 1022.33 1021.82 1021.25 1020.65 1020.04 1019.46 1018.92 1018.42 1017.97
1021.20 1021.39 1021.54 1021.72 1021.99 1022.36 1022.83 1023.37 1023.90 1024.38 1024.75 1024.99 1025.09 1025.08 1024.99 1024.86 1024.73 1024.61 1024.53 1024.47 1024.43 1024.38 1024.31 1024.22 1024.11 1024.00 1023.89 1023.80 1023.71 1023.62 1023.51 1023.34 1023.10 1022.75 1022.30 1021.75 1021.12 1020.46 1019.79 1019.14 1018.55 1018.02 1017.54
Thickness
5714 5715 5713 5711 5708 5706 5704 5702 5700 5699 5697 5696 5694 5693 5692 5691 5690 5690 5689 5690 5690 5690 5690 5690 5690 5690 5690 5690 5690 5690 5691 5691 5692 5693 5694 5695 5697 5698 5698 5698 5699 5701 5702
5718 5714 5712 5709 5706 5703 5701 5699 5696 5695 5693 5691 5690 5688 5687 5686 5685 5684 5683 5683 5683 5683 5683 5683 5683 5683 5683 5683 5683 5683 5684 5684 5684 5685 5686 5687 5689 5690 5691 5691 5692 5693 5694
5716 5712 5710 5706 5703 5700 5698 5695 5693 5691 5689 5687 5685 5683 5682 5680 5679 5678 5677 5677 5677 5677 5676 5676 5676 5676 5676 5676 5676 5676 5676 5676 5676 5677 5678 5679 5681 5682 5683 5683 5684 5685 5686
5714 5710 5707 5704 5701 5697 5694 5692 5689 5687 5684 5682 5680 5678 5677 5675 5674 5673 5672 5671 5670 5670 5670 5669 5669 5669 5669 5669 5669 5669 5669 5669 5669 5669 5670 5671 5673 5675 5675 5676 5676 5677 5678
5711 5708 5705 5701 5698 5694 5691 5688 5686 5683 5680 5678 5676 5674 5672 5670 5669 5667 5666 5665 5664 5663 5663 5662 5662 5662 5662 5662 5662 5662 5661 5661 5661 5662 5663 5664 5665 5667 5668 5668 5669 5670 5671
5708 5705 5702 5699 5695 5691 5688 5685 5682 5679 5676 5674 5671 5669 5667 5665 5663 5661 5660 5659 5658 5657 5656 5656 5656 5655 5655 5655 5655 5655 5655 5654 5655 5655 5656 5656 5658 5660 5661 5661 5662 5663 5664
5705 5702 5699 5695 5692 5688 5685 5681 5678 5675 5672 5669 5667 5665 5662 5660 5658 5656 5654 5653 5652 5651 5651 5650 5649 5649 5649 5649 5649 5649 5649 5648 5648 5648 5649 5649 5650 5652 5654 5654 5655 5656 5657
5703 5699 5696 5692 5689 5685 5681 5678 5674 5671 5668 5665 5663 5660 5658 5655 5653 5651 5649 5648 5647 5646 5645 5644 5644 5643 5643 5643 5643 5643 5642 5642 5642 5642 5642 5643 5644 5646 5647 5648 5649 5650 5651
5700 5696 5693 5689 5686 5681 5678 5674 5671 5667 5664 5661 5659 5656 5653 5651 5649 5646 5645 5643 5642 5641 5640 5639 5639 5639 5638 5638 5637 5637 5637 5636 5636 5636 5636 5637 5638 5640 5642 5643 5644 5645 5646
5696 5693 5690 5686 5682 5678 5674 5670 5667 5664 5661 5658 5655 5652 5649 5646 5644 5642 5640 5638 5637 5636 5635 5635 5634 5634 5633 5633 5632 5632 5631 5631 5631 5630 5631 5631 5632 5634 5636 5638 5639 5640 5641
5691 5689 5686 5683 5679 5675 5671 5667 5663 5660 5657 5653 5650 5647 5645 5642 5639 5637 5635 5634 5632 5631 5630 5630 5629 5629 5628 5627 5627 5626 5626 5625 5625 5625 5626 5626 5627 5629 5631 5633 5634 5635 5636
5688 5686 5683 5680 5676 5671 5667 5663 5659 5656 5652 5649 5646 5643 5640 5637 5635 5633 5631 5629 5627 5626 5625 5624 5623 5623 5622 5621 5621 5620 5620 5620 5620 5620 5620 5620 5621 5623 5625 5627 5628 5629 5631
5687 5683 5680 5676 5672 5668 5664 5659 5656 5652 5648 5645 5642 5639 5636 5633 5630 5628 5626 5624 5623 5621 5620 5619 5618 5617 5616 5615 5615 5615 5614 5614 5614 5615 5615 5615 5616 5617 5619 5621 5622 5623 5625
5683 5681 5677 5673 5669 5664 5660 5656 5652 5648 5644 5641 5638 5635 5632 5628 5626 5623 5621 5619 5618 5616 5615 5613 5612 5611 5611 5610 5609 5609 5609 5609 5609 5609 5610 5610 5610 5611 5613 5614 5616 5617 5618
5680 5677 5674 5670 5665 5661 5656 5652 5648 5644 5641 5637 5634 5631 5628 5624 5621 5619 5617 5615 5613 5611 5610 5608 5607 5606 5605 5605 5604 5604 5604 5604 5604 5604 5604 5604 5604 5605 5606 5608 5609 5611 5612
5677 5674 5671 5667 5662 5657 5652 5648 5644 5640 5636 5633 5629 5626 5623 5620 5617 5614 5612 5610 5608 5606 5605 5603 5602 5601 5600 5599 5599 5598 5598 5598 5598 5598 5598 5598 5598 5598 5599 5600 5602 5603 5605
5674 5671 5667 5663 5658 5654 5649 5644 5640 5636 5632 5628 5625 5622 5619 5616 5613 5610 5607 5605 5603 5601 5599 5598 5596 5595 5594 5593 5593 5593 5593 5592 5592 5592 5592 5592 5592 5591 5591 5592 5593 5594 5596
5671 5667 5664 5660 5654 5649 5645 5640 5635 5631 5627 5623 5620 5617 5614 5611 5608 5605 5602 5600 5598 5596 5594 5592 5590 5588 5587 5586 5586 5586 5586 5586 5586 5586 5586 5585 5584 5583 5583 5583 5583 5584 5585
5667 5663 5659 5655 5650 5645 5640 5635 5630 5626 5622 5618 5615 5612 5609 5606 5603 5600 5597 5594 5592 5590 5587 5585 5583 5581 5579 5579 5579 5579 5579 5579 5580 5579 5578 5577 5576 5575 5574 5573 5572 5573 5573
5661 5658 5654 5649 5645 5640 5634 5629 5624 5620 5616 5612 5609 5606 5603 5600 5597 5594 5591 5588 5585 5583 5580 5578 5575 5573 5571 5571 5571 5572 5572 5573 5572 5571 5570 5568 5567 5565 5564 5563 5562 5561 5561
5654 5651 5648 5644 5639 5635 5629 5623 5618 5613 5609 5606 5602 5599 5596 5593 5590 5587 5584 5581 5578 5574 5571 5569 5566 5564 5561 5560 5559 5561 5564 5564 5564 5563 5560 5558 5556 5554 5553 5551 5551 5550 5549
5648 5645 5642 5638 5634 5630 5625 5619 5614 5608 5603 5599 5595 5592 5589 5586 5583 5580 5576 5573 5569 5566 5563 5559 5556 5553 5550 5547 5545 5544 5546 5551 5552 5554 5550 5547 5545 5542 5540 5539 5538 5537 5537
5641 5639 5637 5633 5628 5624 5620 5613 5607 5601 5596 5591 5588 5584 5581 5578 5575 5572 5569 5565 5561 5557 5553 5550 5546 5542 5539 5535 5531 5528 5526 5528 5533 5541 5540 5538 5534 5531 5528 5527 5525 5524 5523
5636 5633 5631 5626 5622 5618 5613 5609 5602 5595 5589 5585 5580 5576 5573 5570 5567 5564 5560 5556 5552 5548 5544 5540 5537 5532 5528 5524 5520 5516 5513 5511 5509 5518 5524 5524 5522 5520 5517 5515 5514 5512 5510
5631 5627 5624 5620 5615 5611 5607 5602 5596 5589 5583 5577 5573 5569 5565 5562 5559 5555 5551 5547 5543 5539 5535 5531 5526 5522 5517 5513 5508 5505 5501 5497 5493 5493 5503 5506 5506 5505 5504 5502 5500 5499 5497
5625 5621 5617 5613 5608 5604 5599 5595 5589 5583 5577 5571 5566 5561 5557 5553 5549 5546 5542 5538 5533 5529 5525 5521 5516 5512 5507 5502 5498 5493 5488 5484 5481 5478 5483 5488 5490 5492 5490 5489 5486 5484 5482